STARLINK-1327 (45555 NORAD) Tracking and Keplerian Element Data

This shows tracking and keplerian element data for the satellite.

Feedback or suggestion? Click here.




ElementValue
Catalog45555
NameSTARLINK-1327
Epoch Orbit559
Epoch Day144.91668981
Epoch Year2020
RAAN245.811
Inclination52.9993
Eccentricity9.54E-05
Argument of Perigee77.843
Mean Anonmoly297.9075
Mean Motion15.62784843
Decay Rate-0.00015898
L11 45555U 20025AA 20144.91668981 -.00015898 00000-0 -16792-3 0 9993
L22 45555 52.9993 245.8110 0000954 77.8430 297.9075 15.62784843 5597

Live tracking and technical data element details for STARLINK-1327 (NORAD 45555). STARLINK-1327 can be tracked NOW for your location showing map with azimuth and elevation plus other details from your city location.

Track the satellite on the map from your city or location and see movement details for azimuth, elevation, latitude, longitude, range, height, and movement on the map or in text.







IsCatalogInMostPopularTable: catalog: 45555, numindb: 9
Update: records affected: 1



GetName: 45555 STARLINK-1327

Hit Count: updated at: Tue, 26 May 2020 02:57:05 GMT